TimeEDT,TemperatureF,Dew PointF,Humidity,Sea Level PressureIn,VisibilityMPH,Wind Direction,Wind SpeedMPH,Gust SpeedMPH,PrecipitationIn,Events,Conditions,WindDirDegrees,DateUTC
12:17 AM,50.4,45.9,85,29.76,10.0,NW,9.2,-,N/A,,Scattered Clouds,320,2013-09-21 04:17:00
12:36 AM,50.5,46.6,86,29.76,10.0,NNW,5.8,-,N/A,,Mostly Cloudy,330,2013-09-21 04:36:00
12:56 AM,50.9,46.8,86,29.77,10.0,NNW,4.6,-,N/A,,Overcast,340,2013-09-21 04:56:00
1:17 AM,50.2,46.8,88,29.77,10.0,North,4.6,-,N/A,,Mostly Cloudy,350,2013-09-21 05:17:00
1:36 AM,49.5,46.6,90,29.76,10.0,NNW,3.5,-,N/A,,Mostly Cloudy,340,2013-09-21 05:36:00
1:57 AM,49.5,46.8,90,29.77,10.0,NNW,3.5,-,N/A,,Overcast,340,2013-09-21 05:57:00
2:16 AM,49.3,46.4,90,29.77,10.0,NNW,3.5,-,N/A,,Mostly Cloudy,330,2013-09-21 06:16:00
2:36 AM,48.7,46.4,92,29.77,10.0,Calm,Calm,-,N/A,,Mostly Cloudy,0,2013-09-21 06:36:00
2:57 AM,48.2,46.0,92,29.77,10.0,Calm,Calm,-,N/A,,Scattered Clouds,0,2013-09-21 06:57:00
3:16 AM,47.3,45.3,93,29.76,10.0,Calm,Calm,-,N/A,,Clear,0,2013-09-21 07:16:00
3:37 AM,46.8,45.0,93,29.76,10.0,West,4.6,-,N/A,,Scattered Clouds,270,2013-09-21 07:37:00
3:57 AM,46.6,44.8,93,29.76,10.0,West,5.8,-,N/A,,Mostly Cloudy,270,2013-09-21 07:57:00
4:17 AM,47.3,45.5,93,29.76,7.0,West,4.6,-,N/A,,Overcast,280,2013-09-21 08:17:00
4:37 AM,47.7,45.7,93,29.76,10.0,NNW,4.6,-,N/A,,Overcast,330,2013-09-21 08:37:00
4:56 AM,47.3,45.5,93,29.77,10.0,Calm,Calm,-,N/A,,Overcast,0,2013-09-21 08:56:00
5:17 AM,47.7,46.4,95,29.77,10.0,NNW,5.8,-,N/A,,Overcast,340,2013-09-21 09:17:00
5:36 AM,48.2,46.8,95,29.77,4.0,NNW,5.8,-,N/A,,Light Drizzle,340,2013-09-21 09:36:00
5:57 AM,48.0,46.2,93,29.78,5.0,North,10.4,-,N/A,,Overcast,350,2013-09-21 09:57:00
6:50 AM,46.4,44.6,93,29.79,10.0,NNW,6.9,-,N/A,,Overcast,330,2013-09-21 10:50:00
7:50 AM,44.6,42.8,93,29.80,10.0,NW,5.8,-,N/A,,Mostly Cloudy,320,2013-09-21 11:50:00
8:50 AM,46.4,42.8,87,29.81,10.0,NW,4.6,-,N/A,,Scattered Clouds,320,2013-09-21 12:50:00
9:50 AM,48.2,41.0,76,29.82,10.0,NNW,11.5,21.9,N/A,,Scattered Clouds,330,2013-09-21 13:50:00
11:10 AM,48.2,37.4,66,29.83,10.0,NNW,15.0,23.0,N/A,,Mostly Cloudy,330,2013-09-21 15:10:00
11:50 AM,48.2,37.4,66,29.84,10.0,NNW,12.7,-,N/A,,Overcast,330,2013-09-21 15:50:00
12:45 PM,48.2,37.4,66,29.85,10.0,NNW,15.0,25.3,N/A,,Overcast,330,2013-09-21 16:45:00
1:50 PM,48.2,41.0,76,29.86,10.0,North,15.0,-,N/A,,Overcast,360,2013-09-21 17:50:00
2:50 PM,48.2,41.0,76,29.86,10.0,North,11.5,17.3,N/A,,Overcast,350,2013-09-21 18:50:00
3:50 PM,48.2,37.4,66,29.87,10.0,NNW,9.2,16.1,N/A,,Overcast,340,2013-09-21 19:50:00
4:50 PM,48.2,37.4,66,29.88,10.0,NNW,13.8,23.0,N/A,,Overcast,340,2013-09-21 20:50:00
5:55 PM,48.2,37.4,66,29.89,10.0,NW,9.2,19.6,N/A,,Overcast,320,2013-09-21 21:55:00
6:55 PM,46.4,37.4,71,29.91,10.0,NW,13.8,19.6,N/A,,Overcast,320,2013-09-21 22:55:00
7:50 PM,44.6,37.4,76,29.91,10.0,NNW,4.6,-,N/A,,Scattered Clouds,330,2013-09-21 23:50:00
8:50 PM,41.0,35.6,81,29.92,10.0,NNW,6.9,-,N/A,,Scattered Clouds,340,2013-09-22 00:50:00
9:50 PM,41.0,39.2,93,29.93,7.0,NNW,8.1,-,N/A,Rain,Rain,330,2013-09-22 01:50:00
10:17 PM,41.9,39.0,90,29.94,7.0,WNW,6.9,-,N/A,Rain,Light Rain,300,2013-09-22 02:17:00
10:37 PM,41.5,39.2,91,29.94,10.0,NW,6.9,-,N/A,Rain,Light Rain,320,2013-09-22 02:37:00
10:56 PM,41.4,39.6,93,29.95,5.0,NNW,4.6,-,N/A,Rain,Light Rain,340,2013-09-22 02:56:00
11:17 PM,41.4,40.1,95,29.95,10.0,NNW,6.9,-,N/A,Rain,Light Rain,330,2013-09-22 03:17:00
11:36 PM,41.9,40.5,95,29.95,7.0,NNW,5.8,-,N/A,,Light Drizzle,340,2013-09-22 03:36:00
11:57 PM,42.3,40.3,93,29.95,10.0,NNW,5.8,-,N/A,,Overcast,340,2013-09-22 03:57:00